User: anonymous   Login
Location: New Canada
(47.1017°N, 68.5042°W)
Time: 19:17:04
(UTC+00:00)
Language:

NOAA 18 - Orbit

View from above orbital plane
View from above orbital plane
View from above satellite
View from above satellite

Ground track
Ground track

The orbit data is extracted from the following two-line orbital elements,

1 28654U 05018A   24113.41726052  .00000693  00000-0  39372-3 0  9992
2 28654  98.8751 190.8440 0013701 217.4221 142.5998 14.13177040975380
Epoch (UTC): 22 April 2024 10:00:51
Eccentricity: 0.0013701
inclination: 98.8751°
perigee height: 838 km
apogee height: 858 km
right ascension of ascending node: 190.8440°
argument of perigee: 217.4221°
revolutions per day: 14.13177040
mean anomaly at epoch: 142.5998°
orbit number at epoch: 97538

The dashed part of the orbit path shows where the satellite is in the earth's shadow,  

DLR